Regional Weather Roundup
Issued by NWS Grand Forks, ND

Home | Current Version | Previous Version | Graphics & Text | Print | Product List | Glossary On
Versions: 1 2 3 4 5 6 7 8 9 10 11 12 13 14 15 16 17 18 19 20 21 22 23 24 25 26 27 28 29 30 31 32 33 34 35 36 37 38 39 40 41 42 43 44 45 46 47 48 49 50
000
ASUS43 KFGF 230610
RWRFGF
PRAIRIE TO PINES  WEATHER ROUNDUP
NATIONAL WEATHER SERVICE EASTERN NORTH DAKOTA/GRAND FORKS ND
1200 AM CST TUE JAN 23 2018

 **SATELLITE DATA USED TO AUGMENT SKY COVER AT AUTOMATED STATIONS**
 *****  WEATHER ACROSS EASTERN NORTH DAKOTA  *****

CITY           SKY/WX    TMP DP  RH WIND       PRES   REMARKS
GRAND FORKS    CLOUDY    23  18  81 N5        30.07S WCI  17
6HR MIN TEMP:  23; 6HR MAX TEMP:  25;

GRAND FRKS AFB CLOUDY    23  17  77 CALM      30.06F
GRAND FRKS NWS   N/A     21 N/A N/A NE12        N/A  WCI   9
DEVILS LAKE    CLOUDY    19  18  95 S8        30.04S WCI   9
6HR MIN TEMP:  19; 6HR MAX TEMP:  21; 6HR PCP: TRACE;

FARGO          CLOUDY    24  19  81 N12       30.04R WCI  13
WAHPETON ARPT  CLOUDY    25  19  80 N9G20     30.02R WCI  15
$$

 ***** WEATHER ACROSS CENTRAL AND WESTERN NORTH DAKOTA  *****

CITY           SKY/WX    TMP DP  RH WIND       PRES   REMARKS
BISMARCK       CLOUDY    22  19  89 SW8       30.03F FOG     WCI  12
6HR MIN TEMP:  22; 6HR MAX TEMP:  23;

MINOT          CLOUDY    16  13  88 S8        29.97F WCI   5
6HR MIN TEMP:  16; 6HR MAX TEMP:  20;

JAMESTOWN      CLOUDY    20  20 100 CALM      30.02F
6HR MIN TEMP:  20; 6HR MAX TEMP:  21;

MINOT AFB      PTCLDY    14  11  88 S7        29.96F WCI   4
GARRISON         N/A     18  15  88 S8        29.98F WCI   8
WILLISTON      FAIR      21  15  78 SW9       29.99R WCI  11
6HR MIN TEMP:  20; 6HR MAX TEMP:  26;

DICKINSON      FAIR      25  19  78 W13       29.98R WCI  14
6HR MIN TEMP:  19; 6HR MAX TEMP:  26;

HETTINGER      FAIR      24  18  77 NW8       30.02R WCI  15
6HR MIN TEMP:  17; 6HR MAX TEMP:  26;

$$

 *****  OTHER AIRPORT OBSERVATIONS IN OUR AREA  *****

CITY           SKY/WX    TMP DP  RH WIND       PRES   REMARKS
WALHALLA       FAIR      23  23 100 SW3       30.06S
GRAFTON AIRPOR CLOUDY    23  18  80 CALM      30.08F
VALLEY CITY AR CLOUDY    19  19 100 NE3       30.05S
CANDO          CLOUDY    19  19 100 S6        30.05S WCI  11
CAVALIER APRT    N/A     23  18  80 S5        30.06S WCI  17
GWINNER          N/A     21  19  93 N9        30.04R WCI  11
SHEYENNE NWR     N/A     23  20  89 N7        29.95S WCI  15
ROLLA          CLOUDY    19  19 100 S12       29.99F FOG     WCI   7
 ***** THE ABOVE OBSERVATIONS ARE NON NWS ARE NOT QUALITY
       CONTROLLED AND MAY MIS-REPORT RAIN FOR SNOW...
$$

  *****  WEATHER ACROSS NORTHERN MINNESOTA  *****

CITY           SKY/WX    TMP DP  RH WIND       PRES   REMARKS
FLAG ISLAND    CLOUDY    16  10  79 NE8       30.05S WCI   5
WARROAD        CLOUDY    18  14  86 CALM      30.06S
ROSEAU         CLOUDY    19  14  79 NE3       30.06S
HALLOCK        CLOUDY    21  16  79 CALM      30.07S
THF RVR FALLS  CLOUDY    19  16  86 NE7       30.05F WCI  10
BAUDETTE       CLOUDY    17  12  80 N12       30.02S WCI   4
6HR MIN TEMP:  17; 6HR MAX TEMP:  21;

WASKISH        CLOUDY    18  16  93 N6        30.01S WCI   9
CROOKSTON      MOCLDY    21  18  86 N6        30.07S WCI  14
STEPHEN NDAWN    N/A     21  14  73 E1          N/A
GREENBUSH NDAW   N/A     19  14  79 N3          N/A
$$
  *****  WEATHER ACROSS CENTRAL AND WEST MINNESOTA  *****

CITY           SKY/WX    TMP DP  RH WIND       PRES   REMARKS
FOSSTON        CLOUDY    19  16  86 N8        30.02S WCI   9
BEMIDJI        CLOUDY    20  16  84 N7        29.98S WCI  11
6HR MIN TEMP:  20; 6HR MAX TEMP:  23;

PARK RAPIDS    CLOUDY    21  16  81 N10G18    29.95S WCI  10
6HR MIN TEMP:  21; 6HR MAX TEMP:  24;

ELBOW LAKE     CLOUDY    23  19  83 N9        29.98R WCI  13
6HR MIN TEMP:  23; 6HR MAX TEMP:  27;

WADENA         CLOUDY    21  18  86 N16       29.95S WCI   7
DETROIT LAKES  CLOUDY    23  19  86 N5        29.99S WCI  17
MOORHEAD       CLOUDY    23  18  80 N12       30.04S WCI  12
FERGUS FALLS   CLOUDY    23  18  80 N8        29.99R WCI  14
MORRIS MN      CLOUDY    25  19  80 N12       29.96R WCI  14
STAPLES        CLOUDY    21  16  79 N8G16     29.94S WCI  12
$$
  *****  WEATHER ELSEWHERE ACROSS MINNESOTA  *****

CITY           SKY/WX    TMP DP  RH WIND       PRES   REMARKS
DULUTH         FAIR      15   9  76 N10       29.85S WCI   2
6HR MIN TEMP:  15; 6HR MAX TEMP:  23;

INTRNTL FALLS  FAIR      13   7  77 N8        30.00F WCI   2
6HR MIN TEMP:  13; 6HR MAX TEMP:  19;

ELY            FAIR       7   1  78 N7        29.91F WCI  -5
CLOQUET        FAIR      16  10  79 N15       29.87S WCI   1
WHEATON        NOT AVBL
BRAINERD       FAIR      22  15  75 N12       29.92S WCI  10
6HR MIN TEMP:  22; 6HR MAX TEMP:  28;

HIBBING        FAIR      12   8  84 N12       29.91S WCI  -2
6HR MIN TEMP:  12; 6HR MAX TEMP:  20;

ALEXANDRIA     CLOUDY    23  18  81 N15       29.94R WCI  10
6HR MIN TEMP:  23; 6HR MAX TEMP:  27;

SAINT CLOUD    MOCLDY    24  18  77 N14       29.88S WCI  12
6HR MIN TEMP:  24; 6HR MAX TEMP:  28;

MINNEAPOLIS    FLURRIES  26  22  84 N10       29.82R WCI  16
6HR MIN TEMP:  26; 6HR MAX TEMP:  27; 6HR PCP:  0.51;

$$

  *****  WEATHER ACROSS SOUTH DAKOTA  *****

CITY           SKY/WX    TMP DP  RH WIND       PRES   REMARKS
SIOUX FALLS    CLOUDY    24  22  91 N18G28    29.95R WCI  10
6HR MIN TEMP:  24; 6HR MAX TEMP:  28; 6HR PCP: TRACE;

BROOKINGS      CLOUDY    21  20  96 N12       29.96R WCI   9
WATERTOWN      CLOUDY    20  20 100 N16       29.96R WCI   6
6HR MIN TEMP:  20; 6HR MAX TEMP:  23;

HURON          CLOUDY    21  20  96 NW15      30.04R WCI   8
6HR MIN TEMP:  21; 6HR MAX TEMP:  24;

SISSETON         N/A     23  20  88 N17       30.00S WCI   9
ABERDEEN       CLOUDY    22  21  96 N10       30.06R WCI  11
6HR MIN TEMP:  22; 6HR MAX TEMP:  23;

MITCHELL       CLOUDY    23  21  92 NW16      30.05R WCI  10
PIERRE         FOG       21  21 100 NW7       30.05S VSB 3/4 WCI  12
6HR MIN TEMP:  21; 6HR MAX TEMP:  23;

MOBRIDGE       FOG       23  20  88 W5        30.02S VSB 1/2 WCI  17
RAPID CITY     MOCLDY    30  20  66 NW10      30.04R WCI  21
6HR MIN TEMP:  26; 6HR MAX TEMP:  33;

$$

  *****  SOME WEATHER IN NEARBY STATES *****

CITY           SKY/WX    TMP DP  RH WIND       PRES   REMARKS
GLASGOW MT     FAIR      11   9  92 CALM      30.01R
6HR MIN TEMP:  11; 6HR MAX TEMP:  21;

GREAT FALLS MT FAIR      28  17  63 SW9       30.08R WCI  19
6HR MIN TEMP:  25; 6HR MAX TEMP:  36;

CHEYENNE WY    FAIR      24  14  65 NW7       30.07S WCI  16
6HR MIN TEMP:  22; 6HR MAX TEMP:  27;

SCOTTSBLUFF NE FAIR      23  15  71 W15       30.10R WCI  10
6HR MIN TEMP:  20; 6HR MAX TEMP:  29;

OMAHA NE       CLOUDY    30  26  85 NW22G33   29.91R WCI  17
6HR MIN TEMP:  30; 6HR MAX TEMP:  31; 6HR PCP:  0.01;

DES MOINES IA  FLURRIES  30  26  85 N17G30    29.70R WCI  18
6HR MIN TEMP:  30; 6HR MAX TEMP:  37; 6HR PCP:  0.02;

DAVENPORT IA   CLOUDY    35  32  88 W8        29.55R
6HR MIN TEMP:  31; 6HR MAX TEMP:  41; 6HR PCP: TRACE;

CHICAGO IL     CLOUDY    39  31  72 SW13      29.50R
6HR MIN TEMP:  39; 6HR MAX TEMP:  49; 6HR PCP:  0.01;

EAU CLAIRE WI  LGT SNOW  24  21  88 N15G26    29.71S FOG     WCI  11
6HR MIN TEMP:  24; 6HR MAX TEMP:  30; 6HR PCP:  0.03;

LA CROSSE WI   LGT SNOW  31  27  85 N15       29.65R FOG     WCI  20
6HR MIN TEMP:  31; 6HR MAX TEMP:  35; 6HR PCP:  0.01;

$$

  *****  SOME NATIONAL WEATHER *****

CITY           SKY/WX    TMP DP  RH WIND       PRES   REMARKS
LA GUARDIA NY  FOG       36  35  96 NE8       30.03F VSB 1/8
6HR MIN TEMP:  36; 6HR MAX TEMP:  39;

RALEIGH NC     CLOUDY    61  59  93 S16G25    29.90F
6HR MIN TEMP:  54; 6HR MAX TEMP:  61;

ATLANTA GA     CLOUDY    62  61  96 SW12      29.86F
6HR MIN TEMP:  60; 6HR MAX TEMP:  62; 6HR PCP:  0.64;

NEW ORLEANS LA MOCLDY    55  36  48 NW13      30.07S
6HR MIN TEMP:  55; 6HR MAX TEMP:  65;

OKLAHOMA CITY  FAIR      31  16  54 W7        30.10R WCI  24
6HR MIN TEMP:  31; 6HR MAX TEMP:  46;

ALBUQUERQUE NM FAIR      30  12  47 N6        30.24S WCI  24
6HR MIN TEMP:  30; 6HR MAX TEMP:  42;

SALT LAKE CITY MOCLDY    32  25  75 S7        30.34S
6HR MIN TEMP:  32; 6HR MAX TEMP:  35; 6HR PCP: TRACE;

LOS ANGELES CA FAIR



USA.gov is the U.S. government's official web portal to all federal, state and local government web resources and services.